Eastern Oregon Regional At Pendleton Airport Pendleton US
ICAO: KPDT
IATA: PDT
Category: Medium
Scheduled Services: No

Elevation: 1497 ft
TransAlt. 18000 ft.

Airport Communications:
CHINOOK APP/DEP:133.15
ASOS:118.325
CTAF:119.7
GND:121.9
ARNG OPS:40.9
MC MINNVILLE RDO:122.2
PENDLETON TWR:119.7
UNICOM:122.95

KPDT Zoom In..

If you have problems with the map follow the link
https://www.worldairports.se/pages/airport.php?
ICAO=KPDT

Runways:

(A) RW 07 length 6301 ft width 150 ft
---- / hdg 74

(B) RW 11 length 5581 ft width 100 ft
---- / hdg 112

(C) RW 16 length 4341 ft width 60 ft
---- / hdg 163

(D) RW 25 length 6301 ft width 150 ft
ILS 110.30 / hdg 254

(E) RW 29 length 5581 ft width 100 ft
---- / hdg 292

(F) RW 34 length 4341 ft width 60 ft
---- / hdg 343

Location; KPDT
Day. 29 / Time. 17.53 Zulu
* Altimeter: 30.22
* Temperature: 08° c. 46.4°f.
* Wind from: 190° Speed 04 kn.
Dewpoint: 01° c.
Visibility: 10 Statute Miles.
Clouds: Overcast 8500 ft.

KPDT 291753Z 19004KT 10SM OVC085 08/01 A3022 RMK AO2 SLP233 T00830011 10083 20033 56008


Wind From 190°
Speed 04 kn.

 
 
jpsmedia worldairports.se 2020   terms of use